Location: Spring Mountain Observatory
(40.2501°N, 75.4333°W)
Time: 04:59:59
(UTC-05:00)

OTV 5 (USA 277) - Visible Passes

Search period start: 23 January 2018 00:00
Search period end: 02 February 2018 00:00
Orbit: 404 x 417 km, 43.0° (Epoch: 07 September)

Date Brightness Start Highest point End Pass type
(mag) Time Alt. Az. Time Alt. Az. Time Alt. Az.
23 Jan ? 17:51:21 10° SSW 17:53:59 22° SSE 17:56:29 11° E visible
23 Jan ? 19:27:41 10° WSW 19:29:15 25° WSW 19:29:15 25° WSW visible
24 Jan ? 18:36:38 10° WSW 18:39:59 68° SSE 18:40:43 49° E visible
25 Jan ? 17:45:42 10° SW 17:48:58 47° SSE 17:52:08 11° E visible
25 Jan ? 19:22:56 10° W 19:24:54 31° WNW 19:24:54 31° WNW visible
26 Jan ? 18:31:48 10° W 18:35:10 69° NNW 18:36:18 38° ENE visible
27 Jan ? 17:40:42 10° WSW 17:44:04 88° NNW 17:47:27 10° ENE visible
27 Jan ? 19:18:16 10° WNW 19:20:26 33° NW 19:20:26 33° NW visible
28 Jan ? 18:27:07 10° W 18:30:26 52° N 18:31:48 30° ENE visible
29 Jan ? 19:13:32 10° WNW 19:15:58 40° NW 19:15:58 40° NW visible
30 Jan ? 18:22:26 10° WNW 18:25:44 52° N 18:27:23 25° ENE visible
30 Jan ? 19:59:48 10° WNW 20:00:09 12° WNW 20:00:09 12° WNW visible
31 Jan ? 19:08:43 10° WNW 19:11:38 64° WNW 19:11:38 64° WNW visible
01 Feb ? 18:17:38 10° WNW 18:21:01 70° NNE 18:23:11 20° E visible
01 Feb ? 19:55:09 10° W 19:55:58 15° W 19:55:58 15° W visible
